www.pogodaiklimat.ru

Погода и климат >> Архив погоды >> Мексика >> Rio Verde


ПОГОДА в Rio Verde

  • Прогноз погоды в Rio Verde
  • Монитор погоды в Rio Verde
  • Климат города

АРХИВ ПОГОДЫ в Rio Verde

Время (UTC), дата Ветер
(напр.,м/с)
 
Видим.   Явления Облачность Т
(С)
Тd
(С)
f
(%)
Тe
(С)
Тes
(С)
Комфортность P
(гПа)
Po
(гПа)
Тmin
(С)
Tmax
(С)
R
(мм)
R24
(мм)
S
(см)
03 16.07 штиль 0 10 км 10/0
[Ac cuf]
+23.4 +20.0 81 +30 +30 очень
душно
1014.2 907.7
06 16.07 штиль 0 10 км 10/0
[Ac cuf]
+22.4 +21.9 97 +30 +30 очень
душно
1016.0 909.0 +19.0 +32.0
12 16.07 В 4 10 км 9/0
[As op]
+21.4 +26.9 100 +27 +27 душно 1016.1 907.8 +19.7 +32.0
15 16.07 штиль 0 15 км 8/0
[Ac cuf]
+24.8 +20.9 79 +31 +36 очень
душно
1017.4 908.9
18 16.07 ЮВ 3 20 км 8/0
[Ac trans]
+31.6 +17.0 42 +35 +45 очень
душно
1013.4 905.8 +19.7 +31.8
21 16.07 ЮВ 1 25 км 8/0
[Ac cuf]
+33.4 +18.2 41 +38 +46 очень
душно
1014.0 907.1
00 17.07 ЮВ 1 25 км 8/0
[Ac cuf]
+28.4 +18.2 54 +33 +34 очень
душно
1010.2 904.4 +19.7 +34.0
03 17.07 Ю 1 10 км 5/0
[Ac cuf]
+24.0 +21.5 86 +31 +31 очень
душно
1013.7 907.8
12 17.07 С 1 10 км 10/0
[Ac cuf]
+19.0 +18.4 96 +22 +22 комфорт 1014.1 906.0 +19.0 +34.0
15 17.07 СЗ 1 15 км 5/0
[Ac cuf]
+23.6 +22.0 91 +30 +37 очень
душно
1017.3 908.5
18 17.07 ЮВ 1 25 км 5/4 800 м
[Cu hum]
+29.4 +22.4 66 +38 +52 опасность
солнечного
удара
1016.7 908.3 +18.0 +30.0
00 18.07 ЮВ 4 25 км ясно +29.2 +19.7 57 +35 +37 очень
душно
1011.3 905.4 +18.0 +36.0
03 18.07 В 2 10 км 3/0
[Ac cuf]
+25.0 +20.8 78 +31 +31 очень
душно
1013.6 907.9
06 18.07 В 1 10 км 4/0
[Ac cuf]
+24.0 +21.2 84 +30 +30 очень
душно
1015.6 909.4 +18.0 +36.0
12 18.07 С 1 10 км 10/0
[Ac cuf]
+21.4 +20.8 96 +27 +27 душно 1016.1 908.2 +21.0 +36.0
15 18.07 С 1 15 км 8/0
[Ac cuf]
+25.0 +23.7 93 +34 +39 очень
душно
1017.3 909.0
18 18.07 З 1 25 км 4/4 600 м
[Cu hum]
+30.4 +24.1 69 +42 +57 опасность
перегрева
1016.9 908.9 +19.0 +31.0
00 19.07 ЮВ 5 25 км 1/1 600 м
[Cu med, cong]
+29.4 +21.2 61 +37 +38 очень
душно
1008.3 903.1 +21.0 +36.5
03 19.07 Ю 1 10 км ясно +25.2 +21.1 78 +32 +32 очень
душно
1010.8 905.6
06 19.07 штиль 0 10 км ясно +22.6 +19.8 84 +29 +29 очень
душно
1012.8 906.9 +21.0 +36.5
12 19.07 штиль 0 10 км ясно +19.2 +18.9 98 +21 +21 комфорт 1013.8 905.8 +18.0 +36.5
15 19.07 штиль 0 15 км ясно +23.4 +21.8 91 +32 +44 очень
душно
1015.8 907.1
18 19.07 ЮВ 1 25 км ясно +30.6 +24.6 70 +43 +68 опасность
перегрева
1014.6 906.4 +18.0 +31.0
21 19.07 штиль 0 10 км ясно +25.4 +20.7 75 +32 +53 опасность
солнечного
удара
1009.6 904.6
00 20.07 В 4 25 км ясно +31.6 +20.3 51 +38 +39 очень
душно
1007.8 902.5 +18.0 +36.5
03 20.07 штиль 0 10 км ясно +25.4 +20.7 75 +32 +32 очень
душно
1009.6 904.6
06 20.07 В 1 10 км ясно +23.0 +20.2 84 +30 +30 очень
душно
1012.5 906.7 +18.0 +36.5
12 20.07 С 1 10 км 8/0
[Ac cuf]
+19.4 +18.8 96 +23 +23 комфорт 1015.4 907.1 +18.0 +36.5
15 20.07 штиль 0 15 км 5/0
[Ac cuf]
+24.4 +21.9 86 +31 +39 очень
душно
1014.2 905.7
18 20.07 СЗ 1 25 км ясно +30.0 +23.1 67 +40 +66 опасность
солнечного
удара
1013.6 905.5 +30.5
00 21.07 ЮВ 6 25 км ясно +30.8 +22.5 61 +40 +41 очень
душно
1008.4 903.0 +18.0 +36.0
03 21.07 В 5 10 км ясно +25.4 +20.4 74 +31 +31 очень
душно
1011.0 905.8
06 21.07 Ю 1 10 км 6/0
[Ac cuf]
+24.6 +21.6 83 +31 +31 очень
душно
1012.9 907.2 +18.0 +36.0
12 21.07 Ю 2 10 км 8/0
[Ac trans]
+21.1 +18.8 87 +25 +25 комфорт 1012.1 906.5 +18.9 +36.0
15 21.07 Ю 1 20 км 5/0
[Ac trans]
+24.5 +21.0 81 +31 +38 очень
душно
1015.7 907.5
18 21.07 Ю 1 25 км 5/5 900 м
[Cu med, cong]
+32.8 +13.6 31 +34 +46 очень
жарко
1011.7 906.4 +18.9 +33.0
00 22.07 В 4 25 км 4/0 600 м
[Ac trans]
+30.4 +15.6 41 +33 +34 душно 1010.2 904.3 +18.9 +36.9
06 22.07 штиль 0 10 км ясно +23.3 +18.8 76 +30 +30 очень
душно
1017.1 908.1 +18.9 +36.9
12 22.07 З 1 15 км ясно +18.5 +17.5 94 +20 +20 1017.9 907.1 +17.9 +36.9
15 22.07 штиль 0 20 км ясно +24.0 +21.4 85 +30 +42 очень
душно
1016.6 908.0
18 22.07 Ю 1 25 км 4/4 900 м
[Cu hum]
+31.2 +13.9 35 +33 +48 жарко 1012.2 906.4 +17.9 +32.0
21 22.07 СВ 1 25 км 5/5 870 м
[Cu med, cong]
+26.8 +12.3 41 +28 +37 жарко 1006.7 903.3
00 23.07 Ю 3 20 км ясно +32.0 +21.3 53 +40 +41 очень
душно
1008.6 903.0 +17.9 +37.4

 

Местоположение метеостанции Rio Verde (Мексика): широта 21.93 долгота -99.98 высота над уровнем моря 983 м.

В архиве по умолчанию представлена погода в Rio Verde за последнюю неделю. Архивные данные за месяц целиком и за предыдущие месяцы, начиная с января 2011 года, Вы можете получить, выбрав интересующий диапазон дат из раскрывающегося списка и нажав кнопку "Ввод!".


*Определитесь, кто Вы:
робот инопланетянин человек

Внимание! Время в таблицах - всемирное. Для получения местного времени необходимо прибавить поправку, которая в Rio Verde равна -6 ч.

Смотрите также архив погоды в соседних городах и на ближайших метеорологических станциях:

Погода в San Luis Potosi (Мексика) (99 км)
Погода в Tamuin (Мексика) (126 км)
Погода в Matlapa (Мексика) (139 км)
Погода в Queretaro (Мексика) (156 км)
Погода в Guanajuato (Мексика) (163 км)
Погода в Lagos De Moreno (Мексика) (211 км)
Погода в Ciudad Victoria (Мексика) (218 км)
Погода в Tampico (Мексика) (222 км)
Погода в Pachuca (Мексика) (237 км)
Погода в Aguascalientes (Мексика) (240 км)

Пояснения к столбцам:

Ветер - указаны скорость ветра в м/с - средняя за 10 мин, порывы в срок и между сроками (в фигурных скобках) и направление, откуда дует ветер: С - северный, СВ - северо-восточный, В - восточный, ЮВ - юго-восточный, Ю - южный, ЮЗ - юго-западный, З - западный, СЗ - северо-западный.
Видимость - горизонтальная дальность видимости в метрах или километрах. При видимости от 1 до 10 км при отсутствии осадков обычно наблюдается дымка, при ухудшении видимости до 1 км и менее - туман. В сухую погоду видимость может ухудшаться дымом, пылью или мглою.
Явления - указаны атмосферные явления, наблюдавшиеся в срок или в последний час перед сроком; фигурными скобками обозначены явления, наблюдавшиеся между сроками (за 1-3 часа до срока); квадратными скобками обозначены град или гололедные отложения с указанием их диаметра в мм.
Облачность - указаны через наклонную черту общая и нижняя облачность в баллах и высота нижней границы облаков в метрах; квадратными скобками обозначены формы облаков: Ci - перистые, Cs - перисто-слоистые, Cc - перисто-кучевые, Ac - высококучевые, As - высокослоистые, Sc - слоисто-кучевые, Ns - слоисто-дождевые, Cu - кучевые, Cb - кучево-дождевые. Подробнее классификацию облаков см. в Атласе облаков (PDF).
T - Температура воздуха - температура, измеренная на высоте 2 м над землей.
Td - Температура точки росы - температура, при понижении до которой содержащийся в воздухе водяной пар достигнет насыщения.
f - Относительная влажность воздуха - влажноcть воздуха, измеренная на высоте 2 м над землей.
Te - Эффективная температура - температура, которую ощущает одетый по сезону человек в тени. Характеристика душности погоды. При расчете учитывается влияние влажности воздуха и скорости ветра на теплоощущения человека.
Tes - Эффективная температура на солнце - температура, которую ощущает человек, с поправкой на солнечный нагрев. Характеристика знойности погоды. Зависит от высоты солнца над горизонтом, облачности и скорости ветра. Ночью, в пасмурную погоду, а также при ветре 12 м/с и более поправка равна нулю.
P - Атмосферное давление - приведенное к уровню моря атмосферное давление.
Po - Атмосферное давление - измеренное на уровне метеостанции атмосферное давление.
Tmin - Минимальная температура - минимум температуры воздуха на высоте 2 м над землей.
Tmax - Максимальная температура - максимум температуры воздуха на высоте 2 м над землей.
R - Количество осадков - Количество выпавших осадков за период времени, мм. При наведении курсора мыши на число - период времени, за который выпало указанное количество осадков.
R24 - Количество осадков - Количество выпавших осадков за 24 часа, мм.
S - Снежный покров - Высота снежного покрова, см. При наведении курсора мыши на число - состояние снежного покрова и степень покрытия местности в баллах.